sat.trackr.live / text

‹ back to catalog

STARLINK-11534 [DTC]

NORAD 62555 · 2025-006B

PAYLOAD ACTIVE UNKNOWN

§ Identity

Operator
Country
US
Launch date
2025-01-10
Launch site
AFETR
Launch vehicle
Mass (kg)
RCS (m²)

Purposes: comms

External: N2YO · Heavens-Above · Gunter

§ Orbital elements

Epoch: 2026-09-21T16:53:58.229952Z

Period
91.67 min
Inclination
43.0032°
Eccentricity
0.0002877
Mean motion
15.70899026 rev/d
Perigee alt
354.4 km
Apogee alt
358.3 km
Semi-major
6,734.5 km
B*
1.1306e-3
RAAN
38.0991°
Arg perigee
288.0333°
Mean anomaly
72.0221°
Rev number
9,743

§ Raw data

STARLINK-11534 [DTC]1 62555U 25006B   26264.70414618  .00147609  00000+0  11306-2 0  99962 62555  43.0032  38.0991 0002877 288.0333  72.0221 15.70899026 97432

JSON: /api/v1/satellites/62555 · /tle

For live sub-satellite position, see the globe view (requires WebGL).

§ Visibility from observer

Set your observer location to see the next 7 days of passes ≥ 10°. The values pass through the URL so the page stays shareable.

No JS? Fill the form by hand. The geolocation button needs JavaScript.